FW8200 Weather Reports


time (UTC)temp
C
wind
direction
speed
KPH
gust
KPH
rain 1hr
cm
rain 24hr
cm
rain mn
cm
humidity
%
barometer
mb
20260906182418 38 223 0.0 0.0 0.00 0.00 0.00 36 1012.1
20260906181914 38 223 0.0 0.0 0.00 0.00 0.00 37 1012.3
20260906181409 39 223 0.0 1.6 0.00 0.00 0.00 36 1012.3
20260906180904 40 223 0.0 1.6 0.00 0.00 0.00 37 1012.1
20260906180359 40 224 0.0 1.6 0.00 0.00 0.00 37 1012.4
20260906175856 40 233 1.6 1.6 0.00 0.00 0.00 36 1012.7
20260906175352 41 243 0.0 4.8 0.00 0.00 0.00 35 1012.7
20260906174851 40 208 1.6 1.6 0.00 0.00 0.00 37 1012.9
20260906174350 40 223 0.0 1.6 0.00 0.00 0.00 37 1013.0
20260906173845 39 280 1.6 3.2 0.00 0.00 0.00 37 1013.2
20260906173341 38 278 1.6 3.2 0.00 0.00 0.00 38 1013.3
20260906172840 37 230 0.0 1.6 0.00 0.00 0.00 41 1013.5
20260906172336 38 291 0.0 1.6 0.00 0.00 0.00 40 1013.4
20260906171831 38 291 0.0 3.2 0.00 0.00 0.00 39 1013.6
20260906171326 38 242 0.0 1.6 0.00 0.00 0.00 40 1013.6
20260906170822 37 211 1.6 1.6 0.00 0.00 0.00 42 1013.6
20260906170318 37 211 1.6 3.2 0.00 0.00 0.00 43 1013.9
20260906165814 37 211 1.6 3.2 0.00 0.00 0.00 42 1013.9
20260906165314 37 211 1.6 3.2 0.00 0.00 0.00 43 1013.9
20260906164814 37 215 1.6 1.6 0.00 0.00 0.00 43 1013.8
20260906164308 37 211 0.0 1.6 0.00 0.00 0.00 45 1013.7
20260906163804 37 209 1.6 3.2 0.00 0.00 0.00 46 1013.8
20260906163300 36 211 0.0 1.6 0.00 0.00 0.00 46 1013.9
20260906162758 36 209 1.6 3.2 0.00 0.00 0.00 48 1014.4
20260906162256 36 215 1.6 3.2 0.00 0.00 0.00 47 1014.1
20260906161757 36 211 0.0 1.6 0.00 0.00 0.00 49 1014.3
20260906161256 35 209 1.6 3.2 0.00 0.00 0.00 51 1014.3
20260906160754 35 210 1.6 3.2 0.00 0.00 0.00 51 1014.3
20260906160249 34 208 1.6 3.2 0.00 0.00 0.00 55 1014.1
20260906155747 34 210 1.6 3.2 0.00 0.00 0.00 55 1014.3
20260906155242 33 226 1.6 1.6 0.00 0.00 0.00 55 1014.3
20260906154737 33 201 1.6 1.6 0.00 0.00 0.00 57 1014.1
20260906154232 33 200 1.6 3.2 0.00 0.00 0.00 59 1014.1
20260906153731 33 203 3.2 3.2 0.00 0.00 0.00 59 1013.9
20260906153225 33 205 1.6 3.2 0.00 0.00 0.00 59 1013.9
20260906152720 32 205 1.6 3.2 0.00 0.00 0.00 61 1014.0
20260906152215 32 209 3.2 3.2 0.00 0.00 0.00 61 1014.0
20260906151709 32 210 1.6 3.2 0.00 0.00 0.00 60 1013.9
20260906151205 31 223 0.0 3.2 0.00 0.00 0.00 63 1014.3
20260906150701 31 221 1.6 1.6 0.00 0.00 0.00 63 1014.1
20260906150156 31 215 1.6 3.2 0.00 0.00 0.00 64 1014.0
20260906145654 31 216 0.0 1.6 0.00 0.00 0.00 65 1014.0
20260906145149 30 210 1.6 3.2 0.00 0.00 0.00 65 1014.0
20260906144649 30 219 1.6 3.2 0.00 0.00 0.00 67 1014.1
20260906144144 30 200 1.6 3.2 0.00 0.00 0.00 67 1014.0
20260906143643 30 202 1.6 4.8 0.00 0.00 0.00 67 1013.7
20260906143141 30 200 1.6 3.2 0.00 0.00 0.00 68 1014.0
20260906142639 29 200 3.2 4.8 0.00 0.00 0.00 69 1013.8
20260906142135 29 199 4.8 4.8 0.00 0.00 0.00 70 1013.8
20260906141634 28 204 1.6 4.8 0.00 0.00 0.00 68 1014.0
20260906141129 28 226 1.6 4.8 0.00 0.00 0.00 69 1013.8
20260906140628 28 209 1.6 4.8 0.00 0.00 0.00 70 1014.1
20260906140123 28 203 3.2 4.8 0.00 0.00 0.00 71 1014.0
20260906135621 28 234 1.6 3.2 0.00 0.00 0.00 71 1013.9
20260906135116 28 210 1.6 3.2 0.00 0.00 0.00 71 1014.0
20260906134612 28 231 0.0 3.2 0.00 0.00 0.00 71 1013.8
20260906134107 27 246 0.0 1.6 0.00 0.00 0.00 72 1013.7
20260906133603 27 245 0.0 1.6 0.00 0.00 0.00 73 1013.6
20260906133057 27 216 1.6 3.2 0.00 0.00 0.00 74 1013.6
20260906132552 27 217 1.6 3.2 0.00 0.00 0.00 75 1013.4
20260906132048 27 223 0.0 1.6 0.00 0.00 0.00 75 1013.6
20260906131543 26 222 0.0 3.2 0.00 0.00 0.00 76 1013.5
20260906131038 26 199 4.8 4.8 0.00 0.00 0.00 75 1013.6
20260906130538 26 212 1.6 4.8 0.00 0.00 0.00 76 1013.5
20260906130033 25 245 0.0 1.6 0.00 0.00 0.00 80 1013.2
20260906125531 25 245 0.0 1.6 0.00 0.00 0.00 83 1013.3
20260906125031 24 245 0.0 0.0 0.00 0.00 0.00 84 1013.4
20260906124526 23 245 0.0 0.0 0.00 0.00 0.00 86 1013.2
20260906124021 23 245 0.0 0.0 0.00 0.00 0.00 87 1013.1
20260906123520 23 245 0.0 0.0 0.00 0.00 0.00 87 1013.2
20260906123015 23 245 0.0 0.0 0.00 0.00 0.00 88 1013.0
20260906122509 23 245 0.0 0.0 0.00 0.00 0.00 88 1012.9
20260906122006 23 245 0.0 0.0 0.00 0.00 0.00 89 1013.0
20260906121502 23 245 0.0 0.0 0.00 0.00 0.00 89 1012.9
20260906120958 23 245 0.0 0.0 0.00 0.00 0.00 89 1012.8
20260906120453 23 245 0.0 0.0 0.00 0.00 0.00 90 1012.7
20260906115949 23 245 0.0 0.0 0.00 0.00 0.00 91 1012.8
20260906115444 23 245 0.0 0.0 0.00 0.00 0.00 91 1012.6
20260906114944 23 245 0.0 0.0 0.00 0.00 0.00 91 1012.8
20260906114438 23 245 0.0 0.0 0.00 0.00 0.00 91 1012.8
20260906113935 23 245 0.0 0.0 0.00 0.00 0.00 92 1012.7
20260906113433 23 245 0.0 0.0 0.00 0.00 0.00 92 1012.9
20260906112929 23 245 0.0 0.0 0.00 0.00 0.00 92 1012.9
20260906112424 23 245 0.0 0.0 0.00 0.00 0.00 91 1012.7
20260906111920 23 245 0.0 0.0 0.00 0.00 0.00 91 1012.6
20260906111419 23 245 0.0 0.0 0.00 0.00 0.00 91 1012.5
20260906110914 23 245 0.0 0.0 0.00 0.00 0.00 91 1012.8
20260906110409 23 245 0.0 0.0 0.00 0.00 0.00 91 1012.6
20260906105909 23 245 0.0 0.0 0.00 0.00 0.00 91 1012.5
20260906105404 23 245 0.0 0.0 0.00 0.00 0.00 91 1012.8
20260906104900 23 245 0.0 0.0 0.00 0.00 0.00 91 1012.6
20260906104358 23 245 0.0 0.0 0.00 0.00 0.00 90 1012.5
20260906103857 23 245 0.0 0.0 0.00 0.00 0.00 90 1012.5
20260906103356 23 245 0.0 0.0 0.00 0.00 0.00 90 1012.5
20260906102852 23 245 0.0 0.0 0.00 0.00 0.00 90 1012.4
20260906102351 23 245 0.0 0.0 0.00 0.00 0.00 90 1012.2
20260906101846 23 245 0.0 0.0 0.00 0.00 0.00 90 1012.3
20260906101341 23 245 0.0 0.0 0.00 0.00 0.00 90 1012.5
20260906100837 24 245 0.0 0.0 0.00 0.00 0.00 89 1012.4
20260906100336 23 245 0.0 0.0 0.00 0.00 0.00 89 1012.5
20260906095831 24 245 0.0 0.0 0.00 0.00 0.00 88 1012.4
20260906095327 24 245 0.0 0.0 0.00 0.00 0.00 88 1012.3
20260906094826 24 245 0.0 0.0 0.00 0.00 0.00 88 1012.3
20260906094321 24 245 0.0 0.0 0.00 0.00 0.00 88 1012.2
20260906093817 24 245 0.0 0.0 0.00 0.00 0.00 87 1012.1
20260906093312 24 245 0.0 0.0 0.00 0.00 0.00 87 1012.1
20260906092802 24 245 0.0 0.0 0.00 0.00 0.00 87 1011.9
20260906092305 24 245 0.0 0.0 0.00 0.00 0.00 86 1012.1
20260906091758 24 245 0.0 0.0 0.00 0.00 0.00 86 1012.2
20260906091254 25 245 0.0 0.0 0.00 0.00 0.00 85 1011.9
20260906090750 25 245 0.0 0.0 0.00 0.00 0.00 85 1012.1
20260906090248 25 245 0.0 0.0 0.00 0.00 0.00 85 1012.1
20260906085748 25 245 0.0 1.6 0.00 0.00 0.00 85 1012.0
20260906085242 25 245 0.0 0.0 0.00 0.00 0.00 84 1012.1
20260906084737 25 245 0.0 0.0 0.00 0.00 0.00 83 1012.0
20260906084236 25 245 0.0 0.0 0.00 0.00 0.00 83 1011.9
20260906083731 25 245 0.0 0.0 0.00 0.00 0.00 83 1011.8
20260906083227 25 245 0.0 0.0 0.00 0.00 0.00 83 1012.0
20260906082721 25 245 0.0 0.0 0.00 0.00 0.00 83 1011.8
20260906082217 25 245 0.0 1.6 0.00 0.00 0.00 84 1011.6
20260906081713 25 245 0.0 1.6 0.00 0.00 0.00 84 1011.8
20260906081208 25 245 0.0 0.0 0.00 0.00 0.00 84 1011.6
20260906080705 25 245 0.0 0.0 0.00 0.00 0.00 83 1011.8
20260906080200 25 245 0.0 0.0 0.00 0.00 0.00 84 1011.8
20260906075700 25 245 0.0 1.6 0.00 0.00 0.00 84 1011.7
20260906075155 25 245 0.0 1.6 0.00 0.00 0.00 84 1011.6
20260906074650 25 245 0.0 1.6 0.00 0.00 0.00 84 1011.6
20260906074149 25 245 0.0 0.0 0.00 0.00 0.00 84 1011.7
20260906073644 25 245 0.0 0.0 0.00 0.00 0.00 83 1011.8
20260906073139 26 245 0.0 0.0 0.00 0.00 0.00 83 1011.7
20260906072634 26 245 0.0 0.0 0.00 0.00 0.00 82 1011.6
20260906072130 26 245 0.0 0.0 0.00 0.00 0.00 82 1011.9
20260906071627 26 245 0.0 0.0 0.00 0.00 0.00 80 1011.9
20260906071127 26 245 0.0 1.6 0.00 0.00 0.00 80 1011.9
20260906070623 26 245 1.6 1.6 0.00 0.00 0.00 81 1011.9
20260906070118 26 245 0.0 0.0 0.00 0.00 0.00 80 1012.0
20260906065618 26 245 0.0 1.6 0.00 0.00 0.00 79 1011.9
20260906065114 26 245 0.0 1.6 0.00 0.00 0.00 80 1011.7
20260906064609 26 245 0.0 0.0 0.00 0.00 0.00 80 1011.9
20260906064058 26 245 0.0 1.6 0.00 0.00 0.00 81 1011.9
20260906063553 26 245 0.0 0.0 0.00 0.00 0.00 80 1011.7
20260906063049 27 245 0.0 0.0 0.00 0.00 0.00 80 1012.0
20260906062545 27 245 0.0 1.6 0.00 0.00 0.00 79 1011.8
20260906062038 27 245 0.0 1.6 0.00 0.00 0.00 80 1011.9
20260906061535 27 245 0.0 1.6 0.00 0.00 0.00 81 1011.9
20260906061034 27 244 0.0 0.0 0.00 0.00 0.00 80 1012.1
20260906060531 27 244 0.0 0.0 0.00 0.00 0.00 79 1012.0
20260906060028 27 244 0.0 0.0 0.00 0.00 0.00 77 1012.2
20260906055523 27 244 0.0 1.6 0.00 0.00 0.00 78 1012.4
20260906055018 27 244 0.0 0.0 0.00 0.00 0.00 78 1012.2
20260906054518 27 244 0.0 1.6 0.00 0.00 0.00 78 1012.2
20260906054014 27 244 0.0 1.6 0.00 0.00 0.00 78 1012.2
20260906053510 27 232 0.0 3.2 0.00 0.00 0.00 80 1012.1
20260906053005 27 197 0.0 0.0 0.00 0.00 0.00 79 1012.0
20260906052501 27 196 0.0 0.0 0.00 0.00 0.00 80 1012.1
20260906051958 27 196 1.6 1.6 0.00 0.00 0.00 80 1012.2
20260906051453 26 196 0.0 1.6 0.00 0.00 0.00 79 1012.2
20260906050949 27 243 1.6 1.6 0.00 0.00 0.00 83 1012.2
20260906050448 27 268 1.6 1.6 0.00 0.00 0.00 83 1011.9
20260906045947 27 268 0.0 0.0 0.00 0.00 0.00 82 1012.0
20260906045446 27 268 0.0 1.6 0.00 0.00 0.00 83 1012.1
20260906044943 27 268 0.0 0.0 0.00 0.00 0.00 83 1012.1
20260906044438 27 268 0.0 0.0 0.00 0.00 0.00 81 1011.9
20260906043933 27 268 0.0 0.0 0.00 0.00 0.00 80 1012.0
20260906043429 27 268 0.0 0.0 0.00 0.00 0.00 80 1012.0
20260906042925 27 268 0.0 0.0 0.00 0.00 0.00 80 1012.3
20260906042424 27 268 0.0 0.0 0.00 0.00 0.00 80 1012.1
20260906041919 27 268 0.0 0.0 0.00 0.00 0.00 80 1012.2
20260906041415 27 268 0.0 0.0 0.00 0.00 0.00 80 1012.2
20260906040914 27 268 0.0 0.0 0.00 0.00 0.00 79 1012.1
20260906040410 27 268 0.0 0.0 0.00 0.00 0.00 78 1012.2
20260906035905 27 268 1.6 1.6 0.00 0.00 0.00 79 1012.1
20260906035401 27 268 0.0 0.0 0.00 0.00 0.00 79 1012.0
20260906034855 27 268 0.0 0.0 0.00 0.00 0.00 78 1012.0
20260906034350 27 268 0.0 0.0 0.00 0.00 0.00 79 1011.9
20260906033846 27 268 0.0 0.0 0.00 0.00 0.00 80 1011.9
20260906033345 27 268 0.0 0.0 0.00 0.00 0.00 81 1011.8
20260906032842 27 268 0.0 0.0 0.00 0.00 0.00 80 1011.6
20260906032337 27 268 0.0 0.0 0.00 0.00 0.00 80 1011.9
20260906031832 27 268 0.0 0.0 0.00 0.00 0.00 80 1011.8
20260906031328 27 268 0.0 0.0 0.00 0.00 0.00 81 1011.7
20260906030827 27 268 0.0 0.0 0.00 0.00 0.00 80 1011.7
20260906030323 27 268 0.0 0.0 0.00 0.00 0.00 79 1011.9
20260906025817 28 268 0.0 0.0 0.00 0.00 0.00 79 1011.7
20260906025311 28 268 0.0 0.0 0.00 0.00 0.00 79 1011.5
20260906024810 28 268 0.0 0.0 0.00 0.00 0.00 78 1011.6
20260906024309 28 268 0.0 0.0 0.00 0.00 0.00 78 1011.3
20260906023805 28 268 0.0 0.0 0.00 0.00 0.00 78 1011.3
20260906023300 28 268 0.0 0.0 0.00 0.00 0.00 78 1011.2
20260906022756 28 268 0.0 0.0 0.00 0.00 0.00 78 1011.3
20260906022251 29 268 0.0 0.0 0.00 0.00 0.00 77 1011.3
20260906021747 29 268 0.0 0.0 0.00 0.00 0.00 76 1011.2
20260906021246 29 268 0.0 0.0 0.00 0.00 0.00 74 1011.2
20260906020741 29 268 0.0 1.6 0.00 0.00 0.00 71 1011.2
20260906020240 29 268 0.0 0.0 0.00 0.00 0.00 70 1010.9
20260906015735 29 268 0.0 0.0 0.00 0.00 0.00 70 1010.9
20260906015234 30 268 0.0 0.0 0.00 0.00 0.00 71 1010.8
20260906014729 30 268 0.0 0.0 0.00 0.00 0.00 71 1011.0
20260906014224 30 268 0.0 0.0 0.00 0.00 0.00 70 1010.6
20260906013720 30 268 0.0 0.0 0.00 0.00 0.00 68 1010.6
20260906013220 30 268 0.0 1.6 0.00 0.00 0.00 67 1010.6
20260906012715 30 268 0.0 0.0 0.00 0.00 0.00 66 1010.6
20260906012210 31 268 0.0 0.0 0.00 0.00 0.00 62 1010.7
20260906011705 31 268 0.0 0.0 0.00 0.00 0.00 60 1010.5
20260906011159 31 268 0.0 0.0 0.00 0.00 0.00 59 1010.5
20260906010655 31 268 0.0 0.0 0.00 0.00 0.00 58 1010.6
20260906010152 31 268 0.0 1.6 0.00 0.00 0.00 57 1010.4
20260906005651 32 268 0.0 0.0 0.00 0.00 0.00 56 1010.6
20260906005150 32 268 0.0 0.0 0.00 0.00 0.00 54 1010.3
20260906004649 32 268 0.0 0.0 0.00 0.00 0.00 54 1010.3
20260906004144 32 268 0.0 0.0 0.00 0.00 0.00 53 1010.3
20260906003640 33 268 0.0 1.6 0.00 0.00 0.00 52 1010.5
20260906003135 33 268 0.0 1.6 0.00 0.00 0.00 52 1010.3
20260906002630 33 268 0.0 1.6 0.00 0.00 0.00 51 1010.3
20260906002125 34 268 0.0 1.6 0.00 0.00 0.00 49 1010.5
20260906001621 34 268 1.6 1.6 0.00 0.00 0.00 49 1010.5
20260906001120 35 268 1.6 1.6 0.00 0.00 0.00 48 1010.4
20260906000616 35 268 1.6 1.6 0.00 0.00 0.00 47 1010.5
20260906000111 35 268 1.6 1.6 0.00 0.00 0.00 46 1010.6
20260905235610 36 269 0.0 1.6 0.00 0.00 0.00 44 1010.5
20260905235105 36 269 0.0 1.6 0.00 0.00 0.00 43 1010.5
20260905234601 37 269 1.6 1.6 0.00 0.00 0.00 43 1010.4
20260905234056 37 269 0.0 1.6 0.00 0.00 0.00 41 1010.5
20260905233555 38 269 0.0 0.0 0.00 0.00 0.00 39 1010.4
20260905233050 38 269 0.0 1.6 0.00 0.00 0.00 39 1010.4
20260905232546 38 269 1.6 1.6 0.00 0.00 0.00 38 1010.4
20260905232042 39 269 1.6 1.6 0.00 0.00 0.00 37 1010.3
20260905231536 39 262 1.6 1.6 0.00 0.00 0.00 35 1010.6
20260905231033 38 238 0.0 0.0 0.00 0.00 0.00 37 1010.4
20260905230532 38 238 0.0 1.6 0.00 0.00 0.00 38 1010.5
20260905230031 38 242 0.0 0.0 0.00 0.00 0.00 38 1010.4
20260905225525 38 242 1.6 1.6 0.00 0.00 0.00 40 1010.4
20260905225020 38 242 1.6 1.6 0.00 0.00 0.00 38 1010.6
20260905224515 38 242 0.0 1.6 0.00 0.00 0.00 39 1010.3
20260905224014 38 242 0.0 3.2 0.00 0.00 0.00 39 1010.3
20260905223513 40 294 1.6 1.6 0.00 0.00 0.00 36 1010.5
20260905223008 41 297 1.6 3.2 0.00 0.00 0.00 34 1010.5
20260905222508 40 297 0.0 0.0 0.00 0.00 0.00 36 1010.4
20260905222003 40 296 0.0 1.6 0.00 0.00 0.00 36 1010.5
20260905221459 41 297 0.0 0.0 0.00 0.00 0.00 36 1010.5
20260905220955 40 297 0.0 1.6 0.00 0.00 0.00 35 1010.7
20260905220451 40 297 1.6 3.2 0.00 0.00 0.00 36 1010.6
20260905215950 39 295 1.6 3.2 0.00 0.00 0.00 37 1010.7
20260905215446 38 295 0.0 0.0 0.00 0.00 0.00 38 1010.7
20260905214942 39 295 0.0 0.0 0.00 0.00 0.00 38 1010.8
20260905214438 40 295 0.0 0.0 0.00 0.00 0.00 36 1010.8
20260905213937 39 295 1.6 1.6 0.00 0.00 0.00 37 1010.6
20260905213434 40 294 0.0 4.8 0.00 0.00 0.00 37 1011.0
20260905212929 40 202 1.6 1.6 0.00 0.00 0.00 39 1011.0
20260905212424 40 202 4.8 4.8 0.00 0.00 0.00 37 1010.9
20260905211923 40 202 3.2 3.2 0.00 0.00 0.00 39 1011.2
20260905211418 38 202 1.6 1.6 0.00 0.00 0.00 38 1011.3
20260905210909 38 192 4.8 4.8 0.00 0.00 0.00 40 1011.1
20260905210409 38 202 1.6 3.2 0.00 0.00 0.00 39 1011.2
20260905205908 38 217 1.6 3.2 0.00 0.00 0.00 39 1011.2
20260905205403 38 195 4.8 8.0 0.00 0.00 0.00 38 1011.4
20260905204902 38 201 6.4 11.3 0.00 0.00 0.00 38 1011.5
20260905204358 40 252 1.6 8.0 0.00 0.00 0.00 36 1011.7
20260905203857 40 302 1.6 3.2 0.00 0.00 0.00 35 1011.6
20260905203353 40 302 0.0 3.2 0.00 0.00 0.00 36 1011.8
20260905202848 40 302 0.0 3.2 0.00 0.00 0.00 37 1011.5
20260905202343 40 260 1.6 1.6 0.00 0.00 0.00 37 1011.9
20260905201839 40 203 0.0 1.6 0.00 0.00 0.00 38 1012.1
20260905201334 38 202 1.6 3.2 0.00 0.00 0.00 40 1012.1
20260905200834 38 196 3.2 4.8 0.00 0.00 0.00 41 1012.0
20260905200331 38 205 4.8 4.8 0.00 0.00 0.00 40 1012.0
20260905195828 39 206 4.8 4.8 0.00 0.00 0.00 41 1012.2
20260905195323 40 283 1.6 1.6 0.00 0.00 0.00 40 1012.1
20260905194819 40 278 1.6 3.2 0.00 0.00 0.00 37 1012.3
20260905194319 40 214 1.6 3.2 0.00 0.00 0.00 39 1012.4
20260905193818 38 191 0.0 3.2 0.00 0.00 0.00 40 1012.4
20260905193313 38 191 4.8 9.7 0.00 0.00 0.00 40 1012.4
20260905192808 38 202 1.6 1.6 0.00 0.00 0.00 41 1012.5
20260905192306 38 202 1.6 3.2 0.00 0.00 0.00 39 1012.7
20260905191803 38 196 1.6 8.0 0.00 0.00 0.00 40 1012.7
20260905191302 38 196 4.8 8.0 0.00 0.00 0.00 42 1012.9
20260905190801 40 270 3.2 4.8 0.00 0.00 0.00 38 1012.8
20260905190301 38 288 1.6 8.0 0.00 0.00 0.00 40 1012.8
20260905185759 38 198 4.8 4.8 0.00 0.00 0.00 42 1013.1
20260905185249 37 197 4.8 4.8 0.00 0.00 0.00 42 1013.2
20260905184748 38 187 8.0 11.3 0.00 0.00 0.00 42 1012.9
20260905184242 38 290 0.0 1.6 0.00 0.00 0.00 39 1013.3
20260905183741 38 215 4.8 4.8 0.00 0.00 0.00 40 1013.2
20260905183237 38 239 1.6 3.2 0.00 0.00 0.00 40 1013.4
20260905182731 38 210 3.2 3.2 0.00 0.00 0.00 42 1013.6